GFSMW_700_spd_216.txt.gz
Wind_Speed
28 31 34 35 33 29 27 27 26 27 25 26 30 33 34 33 32 30 29 30 30 37 31 31 35 36 31 33 32 38 37 42 39 42 46 43 39 47 44 41 41 42 41
33 34 37 35 34 31 28 26 27 24 24 25 25 24 26 29 31 30 31 29 28 31 33 35 35 33 33 38 33 36 44 43 42 52 46 44 52 51 50 46 44 45 44
38 37 40 40 38 35 30 30 30 24 22 24 27 30 29 28 28 31 35 37 38 39 39 40 40 38 37 35 33 41 40 45 45 38 48 49 56 56 53 49 49 46 47
39 39 40 40 39 36 32 29 26 23 25 27 30 30 29 32 34 38 41 43 45 45 46 42 41 40 37 41 37 35 34 42 45 44 46 53 54 58 55 54 54 51 51
38 41 39 34 30 27 26 24 25 26 27 28 29 35 36 37 43 43 43 43 44 44 41 42 41 39 38 37 33 37 39 37 41 44 44 55 56 56 55 57 54 55 54
36 39 34 30 28 26 25 27 27 26 27 29 31 37 42 40 39 38 38 36 37 37 39 40 39 37 37 40 35 42 38 38 41 43 44 55 50 60 62 54 57 54 51
38 37 35 33 30 28 28 27 27 28 31 31 40 46 43 42 38 36 38 38 33 33 34 36 36 35 34 30 32 38 46 40 40 49 49 54 54 60 63 64 53 58 55
36 34 33 33 32 32 33 34 37 38 40 42 47 47 43 39 35 34 36 32 31 28 29 31 32 31 30 31 30 33 38 44 44 47 44 48 47 49 57 57 56 52 45
30 32 36 37 36 37 36 36 35 36 40 47 47 43 37 33 29 33 27 27 30 24 24 27 27 28 31 34 35 35 36 41 47 48 45 42 50 47 53 53 48 45 44
32 33 34 34 32 29 29 31 36 42 47 44 40 37 34 35 31 32 31 31 27 29 24 27 29 28 34 36 37 35 35 32 35 39 43 44 49 51 48 49 40 35 30
29 30 30 28 29 32 36 40 43 48 46 40 39 31 31 32 30 32 29 27 26 28 27 29 29 31 34 30 29 34 32 32 30 34 38 38 39 43 47 40 38 33 28
32 32 34 38 42 44 46 48 50 48 40 42 37 33 33 33 29 30 32 31 28 29 29 32 31 30 30 29 26 22 26 23 25 28 30 34 29 33 37 35 36 30 25
35 37 41 43 44 47 47 49 46 41 44 44 36 32 30 35 31 31 34 36 33 32 32 35 34 31 28 27 19 15 16 16 19 20 22 29 35 35 35 41 37 29 30
37 41 43 45 44 46 45 40 40 44 48 41 39 36 36 36 33 31 32 30 31 33 35 34 30 29 26 26 15 9 10 9 12 16 19 22 31 35 36 29 28 33 35
41 45 44 44 43 42 37 38 41 45 48 49 44 40 39 34 35 34 32 31 27 28 29 28 25 25 24 22 22 13 11 9 9 10 13 17 31 30 33 33 35 38 35
43 38 36 37 38 40 42 43 47 50 49 42 44 44 38 31 33 33 30 28 25 23 24 24 24 21 21 21 22 16 14 12 5 6 9 12 18 33 37 35 37 35 32
36 33 34 36 38 40 42 46 51 53 47 39 33 33 38 33 30 26 26 27 27 27 27 26 28 24 22 19 22 20 14 12 10 5 8 15 17 19 26 33 36 35 33
34 35 37 38 41 43 49 47 44 35 32 30 32 31 37 40 36 30 28 28 30 31 27 26 27 26 23 24 21 26 22 13 11 10 12 14 15 17 17 23 32 36 33
35 38 39 40 45 50 49 47 37 38 39 36 34 37 34 33 30 29 29 31 36 38 31 29 27 26 23 22 23 24 29 22 15 12 13 14 14 14 15 18 20 26 32
36 36 37 44 48 46 42 41 39 39 38 36 36 39 34 33 35 30 30 30 34 35 31 29 27 26 24 21 25 25 26 24 23 18 16 13 15 16 15 17 20 21 28
32 36 45 47 44 43 41 38 39 41 36 39 37 32 30 28 24 29 27 33 33 30 29 25 26 22 21 24 25 25 30 27 31 26 22 16 14 15 17 18 20 21 24
38 45 44 42 38 34 34 36 36 37 37 36 30 33 28 24 20 21 25 21 16 14 15 18 17 22 22 26 29 24 22 24 27 30 24 20 18 18 18 15 17 18 23
40 40 36 33 32 30 33 36 36 34 32 35 14 14 11 13 15 18 19 18 14 12 11 9 12 11 14 16 18 23 22 30 26 26 23 21 20 18 15 14 16 20 23
37 32 27 28 30 30 31 31 32 29 27 13 6 8 6 9 13 11 13 12 12 12 12 13 11 8 6 8 13 21 21 26 28 26 24 22 20 18 18 18 20 21 23
28 27 30 32 32 32 31 31 26 23 20 26 10 6 5 7 9 9 7 7 11 12 10 11 10 9 8 8 4 6 16 20 22 23 22 21 19 17 16 18 20 21 23
29 32 36 38 36 33 32 29 25 22 24 24 14 7 7 5 7 10 9 7 8 8 12 13 14 10 11 11 9 9 12 14 17 18 18 17 16 16 17 19 21 21 22

GFSMW_700_spd_219.txt.gz
Wind_Speed
38 33 30 27 27 28 26 26 26 27 26 25 29 25 26 27 25 28 31 35 36 35 34 33 39 36 32 32 35 34 37 43 42 38 44 42 37 41 34 46 38 34 38
35 35 34 31 31 31 31 28 27 25 22 22 22 21 22 24 25 30 33 34 34 34 34 35 37 38 38 38 36 34 38 42 39 42 45 46 48 50 48 47 44 39 43
31 30 31 34 34 33 28 26 25 23 23 22 23 21 23 25 29 34 38 39 40 42 42 44 45 45 43 44 41 38 39 34 44 40 41 46 50 49 47 49 48 49 48
31 30 31 36 36 32 28 25 24 24 24 24 23 24 26 29 35 38 43 46 48 46 45 45 44 44 41 38 38 37 40 43 42 43 45 44 51 50 51 47 51 53 52
21 27 32 35 34 31 28 27 27 29 28 26 25 29 31 34 37 46 48 48 44 44 44 42 40 38 37 38 33 33 36 41 39 44 39 40 43 46 51 55 55 57 53
23 28 34 36 35 34 32 31 30 29 29 27 28 32 33 43 50 45 51 48 45 42 42 43 41 37 34 34 33 34 33 37 39 39 38 45 48 49 55 53 52 56 54
25 30 34 35 34 32 31 30 29 29 28 29 30 36 42 48 50 50 45 44 44 42 40 39 40 37 33 30 30 32 32 31 36 32 35 43 43 48 46 49 59 62 59
26 30 32 31 30 31 30 28 29 31 34 38 42 44 50 50 52 43 37 37 39 36 35 34 32 31 31 29 28 28 31 32 38 40 38 40 43 41 48 48 56 64 51
28 31 32 34 34 33 34 35 37 39 41 44 47 46 47 46 43 39 36 29 31 31 34 31 31 30 30 31 31 33 34 37 40 41 44 42 42 38 39 46 45 51 48
28 31 33 34 35 36 37 40 42 42 42 41 43 47 42 41 38 36 35 32 30 29 29 28 32 33 33 34 35 37 38 40 41 42 40 39 41 47 50 48 44 52 49
28 30 32 35 37 39 40 42 40 38 40 42 47 46 42 41 40 37 33 33 32 31 31 30 32 32 35 37 38 38 40 39 39 41 39 42 39 42 45 44 45 43 42
30 33 34 35 37 39 39 38 40 42 44 49 49 43 43 44 48 41 38 35 33 35 34 32 33 33 35 35 37 37 39 36 37 36 37 36 35 39 33 36 34 29 37
33 32 34 38 38 39 40 40 41 44 47 46 42 43 43 45 45 45 39 36 32 34 35 33 35 38 36 36 34 30 29 23 22 27 30 31 28 28 29 32 39 37 33
32 34 38 40 44 43 43 43 44 47 43 39 41 43 48 50 50 45 43 38 35 34 35 32 35 33 32 32 30 26 25 22 21 21 20 21 25 27 24 30 29 31 31
46 48 48 46 44 46 43 48 46 40 40 41 44 49 52 54 51 47 38 37 37 34 33 32 32 26 26 28 19 24 20 23 20 20 15 14 21 24 28 25 28 33 30
50 44 43 47 45 44 42 41 41 40 42 48 54 58 58 52 43 36 33 34 36 34 34 26 27 27 25 24 22 20 19 20 17 17 15 10 14 24 29 32 34 33 28
46 45 44 43 42 40 39 39 39 42 48 54 56 53 49 45 39 36 33 33 33 32 30 28 27 29 24 24 24 22 22 22 20 16 12 9 9 22 32 32 31 30 32
42 43 44 40 37 37 37 40 44 50 55 57 52 44 43 44 43 40 41 33 37 33 34 31 31 31 28 25 24 23 20 24 22 17 13 9 10 12 28 29 34 27 33
34 37 37 37 36 36 39 42 48 53 52 48 44 41 39 39 39 41 36 32 26 27 31 33 32 32 32 25 23 25 20 23 22 19 15 11 12 14 17 21 27 33 36
35 35 34 34 36 36 40 46 49 45 40 40 39 39 39 39 35 35 30 28 32 29 31 33 32 33 33 25 24 24 21 24 21 21 19 14 14 16 17 19 22 28 29
31 32 32 32 35 41 44 43 40 38 37 37 35 38 36 32 29 27 30 31 30 30 31 28 25 29 28 25 23 26 27 25 20 23 24 20 15 15 17 16 18 20 21
31 30 30 34 39 40 39 38 36 34 34 35 34 35 31 19 23 26 16 22 24 22 18 16 17 18 19 20 26 25 30 25 23 26 26 25 21 17 16 16 16 19 22
28 30 34 38 38 38 36 34 33 31 32 33 29 25 18 18 13 14 15 20 17 16 13 13 12 11 14 19 24 28 27 28 21 25 32 29 26 22 19 19 18 17 18
32 36 40 39 35 30 30 30 30 30 31 26 26 22 17 17 15 16 11 10 13 13 13 12 14 15 12 11 13 18 22 26 24 27 31 32 29 26 23 21 20 18 20
36 38 36 34 34 33 32 31 28 29 26 25 24 19 14 12 12 13 8 7 8 10 12 12 12 13 11 12 12 11 16 21 26 32 29 31 28 25 22 19 17 19 20
35 33 33 34 34 35 34 29 27 27 24 26 27 21 19 18 13 13 8 8 7 7 8 13 15 14 12 9 8 7 4 11 18 24 24 23 22 21 20 20 22 24 23

GFSMW_700_spd_222.txt.gz
Wind_Speed
28 29 29 27 24 22 22 24 24 22 25 26 26 25 23 20 19 20 21 21 26 29 31 32 33 35 38 37 37 36 36 37 38 38 37 41 39 40 37 40 37 36 40
34 34 32 30 25 26 26 25 25 26 30 29 27 25 24 22 20 20 21 25 28 33 36 37 38 40 41 42 41 41 41 40 37 43 37 41 36 44 36 41 46 42 41
22 25 26 23 23 22 23 24 26 28 30 27 26 25 24 21 20 22 24 30 36 41 42 43 42 40 43 45 46 45 43 38 38 38 38 38 42 38 45 44 47 47 42
23 21 19 22 24 23 22 25 28 29 28 26 26 25 24 23 24 26 30 36 46 47 50 45 41 40 40 41 40 39 38 36 37 37 41 38 44 46 46 38 41 49 40
25 22 20 20 21 22 22 23 24 26 26 26 27 26 26 26 28 31 35 47 47 50 51 45 41 40 39 38 38 39 38 36 37 39 37 45 43 44 37 44 45 42 49
25 22 22 21 22 24 25 25 24 24 25 27 28 27 28 31 33 37 47 49 50 54 49 46 43 38 36 34 32 33 34 36 36 37 40 46 41 43 53 45 47 42 41
18 17 17 19 22 25 26 25 25 26 28 28 29 31 34 37 42 47 52 49 54 46 43 43 44 40 32 30 29 29 30 32 35 38 36 39 31 43 44 39 46 43 53
15 15 17 19 22 25 26 26 27 28 28 30 32 35 38 43 46 47 49 54 44 39 39 40 40 40 37 31 30 28 28 30 30 30 34 40 44 42 38 36 47 50 47
17 18 23 23 23 25 26 28 28 29 30 33 36 41 44 46 44 47 50 41 38 36 37 36 36 37 35 32 32 33 32 33 32 34 36 38 42 47 44 50 43 39 41
20 24 24 24 26 27 28 29 32 32 37 42 43 44 43 43 46 47 40 39 41 41 38 36 37 38 37 35 34 35 35 37 37 41 41 42 41 47 48 52 54 49 42
23 24 24 25 27 30 34 34 35 38 40 41 40 41 43 44 43 40 40 42 43 44 40 38 37 37 36 36 35 37 38 38 40 41 42 46 42 38 44 48 45 39 42
28 25 26 29 33 35 36 36 38 41 40 39 40 42 40 41 39 41 44 45 47 44 39 34 36 35 35 37 37 37 38 38 38 37 39 34 35 39 40 40 43 39 43
28 29 32 34 35 36 37 39 41 40 40 43 39 42 44 39 42 46 47 49 46 40 40 37 36 36 34 34 36 36 38 38 34 31 29 27 30 33 36 39 39 33 36
39 35 36 35 36 36 38 40 40 41 40 39 47 43 40 43 47 49 51 48 44 42 39 36 34 35 35 32 30 31 33 30 27 28 25 25 23 23 27 25 24 29 25
35 36 38 36 38 38 40 40 41 40 45 44 40 40 43 49 53 55 55 51 47 39 35 36 32 31 33 27 24 25 24 24 26 25 25 22 19 16 21 21 20 19 21
45 38 38 38 40 43 42 43 43 41 42 41 42 44 48 52 55 54 51 48 43 37 35 33 32 30 29 24 23 26 24 22 23 23 25 22 15 11 19 25 21 15 17
33 34 42 46 46 43 44 41 42 42 40 41 44 49 53 57 55 53 50 48 42 39 38 35 34 29 28 27 23 24 26 22 22 22 24 21 14 10 16 23 24 18 21
32 32 38 40 42 42 42 41 39 38 40 43 49 53 56 53 50 48 48 44 39 35 34 33 37 35 30 31 28 26 28 20 18 21 19 16 12 9 11 23 22 24 22
30 30 31 34 38 41 39 37 37 38 42 47 51 52 49 48 46 44 40 36 29 30 33 29 27 31 32 33 29 27 27 21 21 20 21 16 12 8 12 23 25 25 24
27 27 28 30 34 37 37 35 35 39 44 45 46 43 42 41 43 41 37 27 24 22 26 25 30 33 33 31 30 28 27 21 22 23 17 17 12 9 12 19 27 24 26
27 27 27 32 34 33 33 33 37 38 41 41 37 35 36 38 36 31 29 24 20 24 26 27 30 30 27 23 25 25 24 21 22 19 21 19 16 13 10 14 19 25 27
29 28 28 29 30 31 33 35 38 39 36 34 32 33 35 33 29 28 29 21 21 21 19 20 17 17 17 20 17 17 16 22 23 23 18 20 19 17 11 12 16 20 27
31 29 28 29 31 33 37 35 34 34 33 33 31 32 32 28 29 26 21 22 21 22 17 15 13 13 11 11 13 18 22 26 21 21 20 22 22 21 16 13 14 16 20
28 28 30 32 33 32 32 32 33 34 34 31 29 29 29 26 25 20 18 18 16 15 12 11 12 11 12 14 15 13 13 18 23 24 25 25 29 26 21 17 15 16 17
31 33 31 32 30 31 31 32 34 35 32 28 28 28 29 26 24 17 13 13 14 13 12 11 11 10 9 9 11 11 12 13 20 24 28 28 29 29 26 22 19 19 19
28 29 27 28 30 31 32 33 33 30 26 24 23 24 27 29 23 21 17 16 13 13 11 11 9 10 10 10 9 9 9 12 15 21 25 27 29 28 25 23 20 20 19

GFSMW_700_spd_228.txt.gz
Wind_Speed
22 22 21 22 24 25 26 26 26 28 29 26 26 27 26 26 24 22 23 25 23 23 18 18 20 28 35 34 36 35 37 38 40 42 43 44 44 44 41 38 39 40 35
22 23 24 26 27 29 31 32 31 32 32 32 34 33 31 29 28 26 24 25 26 23 21 23 27 33 37 37 38 35 34 36 37 40 41 45 44 45 46 40 39 39 35
22 20 19 20 21 27 33 36 37 37 37 38 37 38 34 33 30 29 28 27 25 24 23 26 31 38 37 40 34 31 32 35 36 36 36 42 44 43 40 35 33 34 35
22 18 13 15 18 21 23 28 32 34 38 39 38 39 35 32 30 29 29 27 25 26 28 32 37 39 40 40 32 31 30 30 30 35 36 39 40 37 42 37 34 31 33
16 20 22 24 27 26 23 26 29 30 31 33 35 32 34 29 28 29 29 26 28 30 32 37 40 42 44 37 33 31 31 29 29 31 33 34 37 38 38 41 37 36 38
19 17 17 18 20 21 21 18 19 20 19 25 28 28 27 28 27 29 27 28 31 34 36 40 41 42 42 34 33 32 31 32 32 31 33 33 37 38 37 35 37 40 40
9 12 13 12 12 11 13 16 17 16 17 19 22 25 28 26 27 26 27 31 35 36 38 41 42 44 34 35 35 35 35 36 37 35 34 34 36 37 41 41 39 41 40
13 15 10 11 13 14 15 18 19 17 17 19 23 23 24 24 28 29 30 34 37 40 43 42 41 33 35 38 40 40 40 40 40 40 38 37 36 36 37 36 38 38 39
16 7 12 16 17 17 14 15 18 17 18 19 21 23 25 27 29 31 34 37 39 42 43 41 33 34 36 41 43 44 43 43 42 43 40 40 38 37 35 36 37 37 41
12 18 25 17 21 21 20 16 20 21 22 24 24 26 27 29 31 35 38 39 40 45 42 34 35 36 41 44 45 44 44 43 42 44 42 41 38 39 39 39 38 40 42
26 24 28 26 23 25 26 21 23 28 28 27 28 30 32 33 35 37 37 41 45 41 39 35 39 43 47 46 45 43 42 44 41 41 40 39 39 40 41 40 40 40 43
28 33 33 34 26 29 30 24 27 31 31 32 33 35 35 35 39 38 41 45 44 36 34 41 45 49 49 46 45 43 42 41 36 37 37 37 38 40 42 42 41 39 39
39 43 39 36 35 32 34 33 30 33 36 36 38 38 37 40 40 42 45 44 36 35 41 46 50 49 47 45 42 41 41 41 37 35 34 38 36 37 38 35 33 35 38
46 39 37 35 33 32 37 38 38 36 40 41 41 41 40 40 40 43 45 40 34 40 46 49 51 50 46 43 38 35 36 37 36 36 37 33 32 34 32 32 33 36 41
38 32 28 29 32 32 34 38 41 38 41 44 43 44 42 41 42 46 45 34 40 45 49 52 50 48 45 40 35 34 35 34 34 38 36 27 26 29 28 30 35 40 32
33 27 32 32 32 31 28 33 38 37 42 44 46 45 43 43 46 48 33 40 44 48 50 50 48 46 43 40 36 35 33 31 33 34 22 22 25 24 24 25 30 27 16
32 36 32 33 31 29 29 30 37 40 41 44 44 44 44 49 47 34 37 43 48 49 49 46 43 40 36 31 29 28 30 30 28 27 23 27 23 23 24 27 29 17 11
34 33 36 35 33 35 33 33 33 37 38 40 43 45 46 42 36 36 43 46 47 46 44 41 38 36 28 27 28 27 25 26 29 26 24 24 23 23 21 22 24 12 13
34 33 32 31 33 35 35 34 32 31 34 40 43 42 39 37 39 41 45 43 43 40 38 36 36 34 30 25 24 23 22 20 22 22 30 26 21 23 20 18 16 10 10
28 32 37 36 35 34 31 30 29 31 36 38 38 37 38 39 41 44 40 41 37 35 32 31 32 25 24 27 26 25 24 23 25 27 27 28 20 19 19 14 9 13 9
32 31 33 34 33 31 29 29 30 32 34 35 36 37 38 40 42 39 39 36 32 30 29 30 27 24 22 23 24 26 25 26 25 25 28 23 18 19 17 12 9 14 14
32 36 36 36 31 28 28 29 31 32 34 36 37 39 40 42 38 38 35 31 29 27 25 25 23 23 23 21 18 16 18 18 17 16 19 16 17 16 16 13 10 19 17
40 36 31 29 27 26 28 31 32 34 35 36 37 40 39 36 37 35 31 29 27 27 24 22 20 19 18 16 15 14 12 11 13 15 16 16 15 17 14 14 13 16 23
38 31 29 28 28 29 31 33 34 35 36 36 38 35 35 36 35 30 26 27 26 25 22 19 19 18 16 14 14 15 15 14 14 16 20 19 20 18 17 17 16 16 18
32 28 29 30 32 33 34 35 35 35 36 35 34 35 35 32 28 25 23 26 28 24 20 18 17 16 16 16 15 13 12 13 12 13 14 20 21 19 20 20 20 18 19
32 31 34 36 38 38 38 37 36 35 32 33 34 33 30 26 23 23 23 22 16 15 16 17 15 15 15 14 15 15 13 11 11 11 12 16 21 22 23 21 24 22 21

GFSMW_700_spd_234.txt.gz
Wind_Speed
18 16 18 21 25 25 30 35 26 24 28 28 27 24 25 25 26 26 26 27 26 26 25 26 30 28 28 29 30 33 34 36 43 47 45 44 40 37 36 37 38 35 32
19 21 22 24 25 27 32 36 40 31 27 32 32 32 30 31 31 31 31 32 31 30 29 29 32 30 27 30 30 32 37 41 42 44 45 44 38 35 36 35 33 32 31
21 19 25 29 32 28 33 39 42 40 32 31 35 37 38 38 37 36 37 36 34 32 32 30 29 30 27 28 31 35 40 42 42 43 40 40 39 38 38 41 39 39 35
25 29 29 34 37 33 30 34 37 42 38 30 32 39 42 42 37 38 38 35 35 35 31 28 25 26 26 29 35 39 39 43 44 41 36 37 38 40 45 41 42 41 36
28 31 32 33 28 27 25 25 29 40 41 38 36 38 37 39 40 40 38 38 37 35 30 29 27 24 27 32 37 40 41 44 45 38 35 37 39 40 41 46 44 43 45
30 23 21 17 23 27 28 28 31 35 41 40 36 36 35 34 35 35 35 37 39 35 32 28 27 27 30 35 38 39 40 44 40 39 39 41 42 44 44 43 42 43 39
16 16 23 22 22 24 23 23 25 26 26 26 31 31 33 34 31 32 37 40 39 33 32 30 30 31 35 37 40 42 43 40 41 39 41 44 47 48 47 44 45 42 43
24 24 25 25 22 21 15 16 21 25 25 26 28 30 31 34 32 35 37 37 37 33 32 33 35 36 38 42 42 44 44 40 39 43 45 47 48 50 45 43 42 44 44
25 21 18 22 23 19 24 24 24 27 29 30 30 30 31 34 32 35 35 37 36 34 36 34 36 39 41 43 43 45 41 41 42 45 48 51 51 51 48 44 41 42 45
19 24 18 23 20 21 21 23 26 29 31 32 32 32 32 33 33 36 39 39 36 36 37 38 40 42 43 43 46 43 40 42 45 47 51 55 52 46 41 39 39 38 39
21 27 29 27 25 25 29 33 34 32 31 35 35 36 34 34 36 38 37 37 37 38 40 40 43 44 44 45 50 39 40 46 48 51 55 55 48 46 43 38 39 37 36
22 22 25 33 32 44 44 46 44 37 34 32 36 38 36 34 35 38 39 39 39 41 42 43 46 45 42 47 38 39 44 47 52 54 53 48 42 42 42 38 36 36 37
29 31 33 36 34 33 38 45 43 36 31 32 34 38 36 39 37 37 40 42 42 43 43 46 46 43 49 42 40 41 46 53 53 50 46 43 40 40 37 33 34 35 34
38 37 38 37 33 37 44 46 43 34 35 29 35 40 41 41 40 40 41 43 44 44 46 48 49 51 40 40 41 44 50 51 51 43 39 36 37 34 30 30 32 36 35
31 35 39 36 37 41 48 44 41 40 36 35 36 40 41 38 40 43 46 44 45 48 50 55 47 34 39 40 43 49 50 49 42 36 30 29 30 24 26 25 31 31 26
40 38 37 34 37 39 38 45 50 41 40 40 35 38 38 34 39 45 45 45 48 51 58 49 35 36 36 42 47 49 48 42 37 30 28 25 21 21 21 23 19 24 26
34 33 35 39 40 43 48 53 47 38 37 40 38 35 37 39 41 40 42 46 51 56 47 34 35 36 40 47 47 47 40 36 32 27 25 23 21 19 18 23 18 24 26
41 41 41 43 43 46 43 39 35 33 35 33 35 36 41 40 39 39 41 45 51 45 34 32 39 39 44 46 44 40 36 32 28 25 25 23 22 20 22 24 25 27 26
35 36 40 42 45 41 34 33 33 30 33 32 35 39 40 37 38 38 39 42 44 32 34 39 38 43 43 43 37 33 33 30 25 23 22 20 21 19 23 23 24 27 26
30 36 38 36 31 32 34 35 33 33 34 35 35 37 36 34 35 34 36 36 34 37 36 36 40 42 40 37 31 30 30 28 26 24 23 22 22 23 23 23 26 23 22
36 41 40 39 40 35 38 34 37 38 38 35 34 36 35 34 31 31 33 35 38 34 35 38 40 39 37 32 29 29 29 28 25 24 21 23 25 27 25 28 31 23 19
39 40 40 43 45 42 40 41 40 40 38 34 35 36 34 30 30 31 35 36 35 36 37 39 37 33 29 28 28 27 27 27 24 21 19 20 23 24 20 18 14 14 14
39 40 40 46 44 41 42 44 43 42 36 33 32 32 29 29 31 34 36 36 36 37 37 35 34 26 26 27 26 25 25 25 21 19 18 17 17 19 17 14 13 11 13
41 41 41 44 46 44 44 47 42 32 31 30 30 31 32 33 34 35 37 37 37 34 32 31 26 25 28 26 23 22 22 21 19 18 18 18 17 18 16 17 14 11 12
38 33 38 44 42 40 39 34 32 29 33 34 35 36 35 36 38 37 36 33 31 29 30 25 24 23 23 20 19 20 20 19 17 16 15 15 15 16 17 19 17 13 12
36 32 27 32 33 37 35 34 34 34 38 35 37 36 39 42 38 38 37 29 26 27 24 22 21 19 16 16 16 17 16 16 15 14 15 14 15 16 17 20 16 13 13

GFSMW_700_spd_237.txt.gz
Wind_Speed
18 24 25 24 28 28 31 34 27 19 18 24 27 26 24 23 23 23 24 24 25 26 27 28 28 28 25 27 27 28 28 30 33 36 39 43 42 40 39 37 35 33 30
20 25 26 24 26 30 29 33 34 30 26 25 26 29 31 30 29 29 30 31 31 31 31 31 31 31 29 25 27 30 28 29 32 37 42 46 44 40 39 37 36 36 35
20 21 23 26 27 31 32 34 34 32 32 34 32 30 34 36 36 35 36 36 36 36 34 33 35 33 28 26 26 29 27 30 33 38 39 44 41 46 44 39 39 39 37
24 30 31 30 33 33 34 36 37 37 37 37 34 31 32 35 35 37 40 40 39 38 36 35 37 36 28 26 26 28 28 31 33 36 38 39 38 45 47 46 45 43 44
27 24 26 25 33 32 32 35 39 41 37 34 34 33 34 35 37 35 37 41 41 41 38 38 37 32 30 25 29 27 30 34 36 38 36 36 40 39 43 51 49 46 45
31 32 34 36 36 37 34 32 37 40 38 35 35 35 35 36 35 34 35 36 38 40 37 40 34 34 28 26 29 30 34 37 38 39 41 45 41 41 43 48 50 49 49
31 32 34 35 31 27 26 25 28 34 34 32 29 27 28 29 31 34 35 36 36 34 38 37 36 35 23 29 33 34 35 39 40 41 43 39 41 42 46 48 49 51 53
26 28 31 30 27 25 20 21 18 19 22 24 25 26 29 30 31 34 36 36 32 34 36 34 34 29 29 33 36 36 40 41 39 41 40 40 42 45 46 48 49 50 51
28 31 36 34 29 16 18 20 21 21 19 22 26 29 31 32 32 32 35 30 36 34 37 36 34 32 33 35 37 41 41 44 40 39 38 42 47 48 49 48 45 44 47
26 32 34 34 24 18 18 26 26 21 19 24 33 33 34 35 34 34 34 31 36 35 38 38 34 34 34 39 40 41 47 47 48 35 39 44 46 49 50 46 45 39 38
24 25 30 34 33 33 30 32 33 35 36 39 42 39 36 37 36 37 34 34 31 38 39 37 35 37 38 41 43 47 48 50 49 35 42 45 48 51 51 44 40 40 36
30 26 25 29 32 38 42 34 33 38 42 35 36 33 33 35 36 36 36 33 35 35 38 38 40 40 41 44 46 49 50 52 35 36 43 45 49 52 46 41 38 38 35
33 31 34 34 39 39 40 37 38 38 37 40 41 32 31 30 30 33 33 34 37 37 38 39 40 41 45 48 51 53 52 31 35 40 44 47 47 44 40 37 37 34 29
38 36 35 41 44 39 40 40 41 40 39 43 47 40 34 29 31 31 35 38 40 40 40 41 43 46 50 54 54 56 29 33 38 42 45 49 43 39 33 34 32 25 27
37 36 37 40 40 43 43 43 42 40 42 44 49 46 39 36 33 32 35 37 40 42 43 45 47 50 54 57 57 29 30 36 39 42 46 44 38 32 30 26 21 22 21
46 49 49 48 43 41 40 35 36 40 44 45 47 49 44 41 35 33 34 35 38 41 43 48 50 55 57 54 38 25 33 37 40 44 41 37 33 28 25 22 22 20 23
36 33 32 29 32 35 36 35 37 41 46 50 46 45 43 38 35 34 35 37 40 41 44 47 51 54 56 43 25 29 36 39 41 39 37 32 29 26 24 22 24 21 24
31 29 40 38 39 40 40 42 45 49 51 47 42 40 38 36 35 36 38 41 43 44 42 46 50 53 46 28 26 32 38 41 37 33 32 28 24 23 23 24 24 25 23
32 35 37 39 40 43 44 44 45 47 47 43 40 40 38 37 37 39 41 43 45 41 42 46 47 45 29 26 29 35 38 38 33 31 30 28 25 22 23 21 20 23 25
30 31 34 37 38 37 38 40 42 40 40 40 37 39 39 39 38 40 43 43 39 40 40 42 41 31 30 29 31 34 36 33 30 28 26 27 26 24 23 22 24 24 25
35 30 33 34 38 38 40 44 44 46 43 38 39 40 40 39 38 39 40 39 39 41 34 35 37 34 31 32 29 33 31 29 27 27 26 24 23 21 21 23 24 24 25
46 54 50 48 48 44 41 45 46 47 47 47 46 41 43 41 36 36 38 35 36 35 39 40 36 31 30 28 30 30 28 27 25 25 24 22 19 19 18 18 18 17 12
52 40 42 47 40 39 47 46 43 43 48 48 45 43 40 36 33 33 34 33 35 38 39 34 31 29 25 28 28 27 28 26 23 22 22 20 19 19 16 15 15 11 10
40 46 40 39 42 48 45 44 44 41 39 35 33 31 31 32 33 34 38 38 37 36 30 32 31 26 26 27 26 25 24 23 21 21 20 18 18 17 14 13 12 11 11
58 51 45 45 41 39 38 37 31 30 31 29 32 32 35 37 37 42 41 39 30 31 33 30 24 23 26 25 23 21 18 18 20 19 17 17 16 15 12 12 14 14 11
37 40 42 42 34 33 33 33 32 30 31 30 34 37 39 40 43 41 33 25 29 33 31 24 21 24 24 21 19 16 15 16 17 16 16 17 15 13 12 12 14 14 13

GFSMW_700_spd_243.txt.gz
Wind_Speed
21 27 27 30 30 28 28 28 25 24 22 23 20 17 17 19 20 22 23 24 26 27 28 29 30 33 34 34 34 34 34 34 33 33 32 30 29 28 28 28 32 30 33
26 27 30 29 28 22 27 24 25 26 22 20 20 22 22 23 23 24 24 26 30 32 35 36 36 37 38 38 38 38 36 37 35 36 36 33 31 30 28 29 31 31 33
26 24 31 28 25 22 17 15 17 19 22 23 26 28 29 29 29 27 26 27 29 32 34 37 40 42 43 42 41 41 40 40 39 38 41 36 32 31 30 30 30 34 35
24 25 28 28 25 22 18 19 23 25 25 28 29 30 32 32 31 31 30 30 32 34 35 36 38 40 42 45 44 42 44 45 50 47 42 33 27 36 37 32 33 38 40
19 19 20 23 23 27 24 25 26 30 29 30 30 31 34 33 35 34 35 36 36 35 37 38 37 38 39 42 45 43 46 48 62 51 30 32 31 33 37 40 42 46 42
5 10 18 20 22 28 31 32 33 34 32 31 32 34 36 35 34 35 36 35 35 36 37 36 35 36 42 40 41 42 49 39 50 29 23 26 32 33 38 42 47 49 48
14 12 13 16 21 29 30 31 31 30 31 33 34 34 34 34 32 30 30 31 33 34 35 36 35 39 36 41 34 41 40 51 58 39 33 28 34 36 41 42 44 51 56
12 11 12 11 13 16 17 19 22 26 29 33 32 31 32 29 27 24 26 32 36 37 37 36 36 36 36 37 31 33 41 43 34 31 24 35 39 44 41 43 48 58 49
14 15 19 17 19 21 22 19 23 27 25 21 22 24 28 30 30 28 36 36 37 35 37 35 36 36 36 35 33 33 41 47 40 35 38 39 43 47 47 44 42 52 41
20 25 24 23 23 24 27 27 27 23 23 25 24 28 25 26 32 37 36 35 35 29 30 34 35 35 34 35 37 36 41 40 40 42 45 43 47 46 45 50 55 35 37
24 29 28 33 36 32 31 31 30 25 23 27 31 30 27 26 29 30 29 28 31 30 29 30 32 33 33 35 39 42 37 48 48 43 41 44 48 49 54 53 34 36 39
33 38 33 32 32 31 32 33 31 28 26 26 30 30 30 31 32 31 32 31 31 32 29 30 31 32 37 37 41 40 38 45 42 40 44 49 51 52 54 37 35 38 41
47 48 49 41 35 35 35 33 32 31 28 30 31 32 33 33 34 35 35 34 36 37 32 33 34 36 35 34 40 38 37 41 43 44 48 51 51 56 43 35 36 38 41
49 47 45 44 36 38 33 29 34 32 32 33 35 36 36 35 35 36 37 37 38 37 35 32 32 35 34 37 42 42 40 42 44 48 50 52 54 54 33 35 36 37 37
45 38 27 26 27 32 36 29 30 35 35 38 41 39 37 37 38 39 38 40 41 41 35 33 35 36 38 41 38 37 38 42 47 51 54 57 58 38 34 34 35 34 34
43 35 28 23 22 22 28 29 35 35 37 33 34 33 35 39 40 38 40 42 42 41 39 39 37 37 40 41 39 38 39 46 51 53 57 59 51 38 33 33 34 31 32
30 31 31 28 25 19 17 20 24 24 25 27 28 28 30 32 35 38 42 43 43 44 40 39 41 42 41 41 41 42 48 50 53 57 55 58 38 33 32 32 30 30 29
26 26 24 24 29 29 26 23 18 19 21 25 25 22 24 31 36 39 42 42 41 39 39 39 42 44 41 43 44 48 50 56 56 51 59 43 34 31 32 29 28 28 28
20 21 22 23 22 22 25 27 26 27 28 29 34 36 38 37 37 38 39 40 40 39 40 40 42 42 41 45 50 54 58 48 49 58 43 34 29 29 28 26 27 27 26
27 26 25 27 29 30 30 30 31 33 37 35 36 40 45 49 54 54 49 47 43 40 42 45 44 47 48 51 61 55 49 49 55 41 34 30 27 25 25 26 27 25 25
39 38 38 39 41 40 40 39 43 46 47 47 49 44 44 47 48 48 50 49 44 43 43 44 53 53 53 57 55 54 54 55 40 34 31 28 24 24 25 25 24 24 24
36 40 42 47 47 45 46 50 48 49 50 47 44 45 45 48 50 55 61 56 47 49 44 44 53 54 52 53 54 56 42 37 32 31 29 23 23 26 25 24 22 21 21
41 48 49 48 48 49 50 49 49 49 48 55 54 54 54 54 54 50 48 48 49 48 43 45 55 60 55 44 37 37 32 29 30 29 24 22 26 25 24 22 21 20 22
42 44 47 48 47 47 49 49 49 48 46 45 45 47 47 45 42 39 35 34 33 39 46 48 45 41 41 38 35 31 30 31 30 23 20 23 22 22 21 20 19 19 22
40 40 42 43 43 43 42 41 40 39 35 36 38 37 36 36 32 32 32 33 38 40 44 43 39 37 36 32 30 30 33 30 24 17 19 19 20 20 19 18 19 18 17
33 34 35 36 36 37 36 37 35 33 31 27 26 31 34 33 35 34 35 37 40 35 30 23 25 25 27 30 32 32 30 26 15 16 18 18 18 18 18 17 19 17 16

GFSMW_700_spd_246.txt.gz
Wind_Speed
16 17 20 23 24 23 24 28 28 29 26 22 18 16 14 15 16 14 15 18 21 23 25 26 27 29 32 33 34 37 37 38 37 39 39 40 40 40 36 32 30 33 31
23 23 26 26 30 27 25 20 21 25 27 24 17 18 19 22 22 21 21 20 20 21 23 26 28 30 34 37 39 41 42 42 40 41 42 45 46 45 39 35 33 29 31
28 29 26 26 23 27 23 18 11 13 16 19 22 22 23 26 27 25 24 23 24 25 27 28 29 31 33 37 39 41 44 43 42 42 44 50 47 51 40 36 36 32 34
15 20 21 20 28 21 21 18 18 17 18 22 25 26 27 28 27 26 26 28 29 31 32 33 33 35 35 36 38 37 38 41 44 46 51 59 46 62 50 36 28 31 35
9 10 17 14 10 18 19 22 23 22 23 25 26 27 29 29 29 29 31 33 34 36 37 36 36 38 38 35 35 37 37 40 46 54 44 51 43 46 45 37 31 32 33
14 9 4 4 11 18 20 23 26 26 26 29 31 31 30 32 32 33 35 36 37 36 34 32 35 37 34 42 36 34 40 43 38 46 43 45 47 38 35 40 30 35 36
10 9 5 3 3 6 11 16 20 23 26 24 24 29 33 34 34 35 36 35 30 25 25 31 37 40 39 41 39 40 34 35 32 48 50 51 46 41 41 43 31 40 42
10 10 11 14 13 13 12 14 15 17 15 17 22 24 30 28 26 27 28 30 28 29 33 36 36 36 40 41 39 41 32 41 37 38 41 45 46 40 38 30 35 41 46
11 10 12 16 16 15 18 19 21 23 25 26 21 22 21 20 21 23 27 32 33 36 37 38 37 37 38 38 34 38 37 38 38 37 47 42 47 42 34 30 39 47 48
16 16 16 19 22 25 25 25 23 26 25 23 21 24 25 26 24 22 24 30 31 31 28 28 32 35 37 37 34 37 40 37 35 38 36 39 47 34 32 37 44 45 51
20 24 27 28 30 34 34 32 31 25 27 26 22 23 24 25 24 25 24 26 27 28 29 28 29 30 30 29 33 36 36 35 41 37 39 40 37 35 36 39 47 47 52
27 31 34 38 43 43 41 45 38 34 28 25 26 26 26 27 28 30 28 30 32 33 33 33 33 34 32 32 33 34 39 37 36 38 43 37 37 37 43 41 44 51 48
38 43 43 45 46 45 39 35 42 39 33 31 28 29 29 33 35 34 34 34 35 37 36 37 38 37 35 33 33 34 38 35 41 42 42 38 38 38 41 46 48 54 34
41 39 44 44 46 31 31 29 31 34 32 32 32 32 33 35 38 41 41 40 40 40 39 39 40 39 36 34 35 36 35 35 41 42 42 37 38 41 47 49 48 49 33
38 39 39 42 29 22 24 28 26 29 28 29 30 32 34 35 37 43 42 42 43 42 41 41 41 41 38 37 38 37 37 39 38 39 40 40 46 44 45 50 47 39 34
29 35 36 30 28 25 22 22 20 19 20 21 25 29 30 32 32 34 36 39 41 41 45 42 43 43 42 40 39 38 40 39 39 41 39 44 47 48 50 45 42 33 31
32 26 25 24 25 20 20 22 22 22 23 22 23 26 30 32 34 35 35 35 40 45 48 48 48 45 44 41 43 43 44 40 45 41 50 45 56 54 52 44 38 31 30
28 23 21 23 20 17 16 17 19 20 21 22 24 25 25 26 27 28 31 36 42 48 52 52 48 54 50 44 42 47 48 50 47 47 50 59 61 60 43 44 36 31 28
29 29 27 25 24 25 26 28 27 28 29 29 31 35 37 39 41 42 39 39 43 49 54 56 57 53 49 44 43 47 52 54 58 50 57 64 56 44 36 31 31 27 25
28 31 32 32 37 35 35 39 41 42 37 37 41 46 46 46 48 47 46 45 47 50 50 49 50 48 49 50 57 47 58 55 59 57 48 45 44 32 31 33 28 21 25
41 41 40 42 43 39 39 41 44 42 43 43 44 44 46 45 46 46 47 48 48 49 49 49 51 54 50 51 48 58 60 61 60 45 34 33 33 29 30 30 20 22 25
43 47 42 50 39 38 41 45 47 46 49 50 51 50 51 52 51 53 52 51 52 55 56 55 53 48 44 48 56 58 56 43 36 33 31 29 29 29 30 20 17 23 22
44 50 47 39 39 44 46 47 48 49 49 50 51 51 52 51 51 49 47 45 42 39 39 35 37 43 43 49 50 46 26 26 25 25 26 27 28 30 23 15 19 21 19
53 47 50 41 41 42 43 45 45 44 42 43 43 42 41 43 44 44 40 37 35 32 28 28 36 40 35 24 19 22 23 22 22 24 26 27 28 26 12 14 18 19 18
42 34 30 33 36 37 37 36 36 35 36 38 37 37 36 35 35 36 33 31 32 30 27 24 22 23 21 22 21 21 22 23 26 26 27 26 22 15 11 14 18 19 17
26 28 31 31 30 31 33 33 34 35 36 37 37 36 35 31 25 22 26 23 13 15 16 20 21 27 23 21 23 25 25 25 25 24 21 16 12 11 10 15 18 18 17